Find Connecta T4.1

NORAD ID: 60472 Int'l Des: 2024-149 Owner: PLNSST Country: TR Constellation: plan-s operational
LEOCIRCULARRETROGRADESSO

リアルタイム位置

3D地球を読み込み中...

Connecta T4.1について

説明を読み込み中...

次回通過

Passes for default location (London). Set your location on the main map for personalized predictions.

高度履歴

Loading altitude history...

軌道要素

1 60472U 24149E 26133.15137806 .00002648 00000-0 11472-3 0 9993
2 60472 97.3764 210.0409 0003235 66.4091 293.7485 15.23261189 96463
Epoch: May 13, 2026 • Age: 16 hours

現在のステータス

高度 504.5 km
速度 7.62 km/s
衛星直下点 57.41°N, 128.24°W
打ち上げ日 Aug 16, 2024
運用期間 1.7 years
タイプ other

技術仕様

分類 Payload
質量 10.00 kg
乾燥質量 10.00 kg
総質量 10.00 kg
長さ 0.30 m
直径 0.20 m
スパン 0.30 m
形状 Box
製造者 PLNSST
バスタイプ Cubesat 6U
フェーズステータス In Orbit
所有者/国 PLNSST/TR

Most Searched